Location: Newark
(38.0892°N, 27.7378°E)
Time: 03:38:51
(UTC+00:00)

Envisat - Visible Passes

Search period start: 06 December 2019 00:00
Search period end: 16 December 2019 00:00
Orbit: 764 x 766 km, 98.1° (Epoch: 05 December)

Date Brightness Start Highest point End Pass type
(mag) Time Alt. Az. Time Alt. Az. Time Alt. Az.
06 Dec 5.9 03:53:18 10° NE 03:56:51 19° E 04:00:23 10° SE visible
06 Dec 4.3 16:44:08 10° SSW 16:48:53 41° W 16:53:40 10° NNW visible
07 Dec 2.9 16:06:59 10° SSE 16:12:03 86° ENE 16:17:10 10° NNW visible
08 Dec 4.9 04:17:55 10° NNE 04:22:31 34° E 04:27:05 10° SSE visible
08 Dec 3.5 15:30:47 10° SE 15:35:25 38° ENE 15:40:06 10° N visible
08 Dec 5.3 17:10:34 10° SW 17:14:31 23° W 17:18:30 10° NW visible
09 Dec 6.1 03:42:41 10° ENE 03:45:28 15° E 03:48:15 10° SE visible
09 Dec 3.8 16:32:38 10° S 16:37:34 52° W 16:42:32 10° NNW visible
10 Dec 2.9 15:55:47 10° SSE 16:00:48 68° ENE 16:05:52 10° N visible
10 Dec 6.1 17:38:12 10° WSW 17:40:16 12° W 17:42:20 10° WNW visible
11 Dec 5.4 04:06:55 10° NE 04:11:11 26° E 04:15:25 10° SSE visible
11 Dec 3.7 15:19:52 10° SE 15:24:14 30° ENE 15:28:37 10° N visible
11 Dec 4.9 16:58:48 10° SSW 17:03:10 29° W 17:07:34 10° NW visible
12 Dec 6.3 03:32:37 10° ENE 03:34:04 11° E 03:35:30 10° ESE visible
12 Dec 3.3 16:21:14 10° S 16:26:16 68° WSW 16:31:21 10° NNW visible
13 Dec 4.2 04:31:53 10° NNE 04:36:48 48° E 04:41:40 10° S visible
13 Dec 3.1 15:44:39 10° SSE 15:49:33 53° ENE 15:54:30 10° N visible
13 Dec 5.8 17:25:46 10° SW 17:28:52 16° W 17:31:59 10° NW visible
14 Dec 5.8 03:56:02 10° NE 03:59:49 21° E 04:03:35 10° SE visible
14 Dec 4.5 16:47:10 10° SSW 16:51:50 37° W 16:56:32 10° NNW visible
15 Dec 3.0 16:09:55 10° SSE 16:14:59 86° WSW 16:20:06 10° NNW visible
